Weather Roundup
Issued by NWS

Home | Current Version | Previous Version | Text Only | Print | Product List | Glossary On
Versions: 1 2 3 4 5 6 7 8 9 10 11 12 13 14 15 16 17 18 19 20 21 22 23 24 25 26 27 28 29 30 31 32 33 34 35 36 37 38 39 40 41 42 43 44 45 46 47 48 49 50
000
NZUS93 KARX 271259
HRRWXR

CURRENT HOURLY OBSERVATIONS ACROSS
MUCH OF THE UPPER MISSISSIPPI VALLEY
NATIONAL WEATHER SERVICE LA CROSSE WI
800 AM CDT SUN MAY 27 2018


...SOUTHEAST MINNESOTA...


CITY           SKY/WX    TMP DP  RH WIND       PRES   REMARKS
ROCHESTER      FAIR      71  66  84 SW3       29.86R
ROCHESTER/MAYO FAIR      70  63  79 CALM      29.86R
WINONA         FAIR      70  68  94 CALM      29.82S
AUSTIN         FAIR      70  64  83 CALM      29.85R
ALBERT LEA     FAIR      70  64  83 CALM      29.85R
DODGE CENTER   FAIR      72  64  78 CALM      29.85R
PRESTON        FAIR      71  65  83 SW3       29.86R
OWATONNA       FAIR      72  63  73 CALM      29.84R
FARIBAULT      FAIR      72  64  78 CALM      29.83S
$$

...ELSEWHERE IN MINNESOTA...


CITY           SKY/WX    TMP DP  RH WIND       PRES   REMARKS
MINNEAPOLIS    PTSUNNY   76  63  64 CALM      29.82R
INTNL FALLS    FAIR      68  62  81 N3        29.84R
DULUTH         FAIR      73  59  61 CALM      29.84R
RED WING       FAIR      70  64  83 CALM      29.82R
REDWOOD FALLS  CLOUDY    69  61  75 CALM      29.82R
MANKATO        FAIR      73  59  61 S5        29.83R
WORTHINGTON    CLOUDY    79  54  41 S7        29.85R
FAIRMONT       MOSUNNY   77  59  53 S5        29.84R
$$

...SOUTHWEST WISCONSIN...


CITY           SKY/WX    TMP DP  RH WIND       PRES   REMARKS
LA CROSSE      FAIR      74  67  78 SE3       29.82R
PRAIRIE DU CHI FAIR      70  67  89 CALM      29.82S
BOSCOBEL       FAIR      74  68  81 CALM      29.83S
LONE ROCK      FAIR      73  69  87 E5        29.84R
PLATTEVILLE    FAIR      75  71  87 S5        29.85S
FORT MC COY    FAIR      67  62  83 CALM      29.83S
CAMP DOUGLAS   FAIR      76  67  73 S5        29.83R
MAUSTON-NEW LI FAIR      75  67  76 CALM      29.83R
VIROQUA        FAIR      76  68  78 CALM      29.85R
WIS DELLS      FAIR      77  64  62 SW5       29.84S
$$

...ELSEWHERE IN WISCONSIN...


CITY           SKY/WX    TMP DP  RH WIND       PRES   REMARKS
MILWAUKEE      FAIR      81  64  56 W7        29.85R
MADISON        FAIR      79  68  69 CALM      29.85R
GREEN BAY      FAIR      74  66  76 SW7       29.82R
EAU CLAIRE     NOT AVBL
BLACK RVR FLS  FAIR      69  67  93 CALM      29.82R
MEDFORD        FAIR      68  62  82 CALM      29.84F
WAUSAU         NOT AVBL
WIS RAPIDS     FAIR      76  64  66 CALM      29.85R
MARSHFIELD     FAIR      74  67  78 SW3       29.83R
RICE LAKE      FAIR      65  59  80 CALM      29.85R
$$

...NORTHEAST IOWA...


CITY           SKY/WX    TMP DP  RH WIND       PRES   REMARKS
WATERLOO       FAIR      73  70  90 CALM      29.82R
DUBUQUE        FAIR      76  68  76 S7        29.85R
DECORAH        FAIR      75  70  83 CALM      29.83R
MASON CITY     CLOUDY    75  68  78 CALM      29.86R
CHARLES CITY   FAIR      72  66  83 CALM      29.84R
OELWEIN        FAIR      75  70  83 S5        29.84S
$$

...ELSEWHERE IN IOWA...


CITY           SKY/WX    TMP DP  RH WIND       PRES   REMARKS
DES MOINES     MOSUNNY   75  70  84 S3        29.83R
IOWA CITY      FAIR      76  69  79 S3        29.85R
FORT DODGE     CLOUDY    74  65  73 CALM      29.85R
MARSHALLTOWN   SUNNY     74  70  87 CALM      29.82R
CEDAR RAPIDS   FAIR      75  69  81 S8        29.83R
$$

...NORTHERN ILLINOIS...


CITY           SKY/WX    TMP DP  RH WIND       PRES   REMARKS
CHICAGO-OHARE  FAIR      78  68  71 W7        29.86R
CHICAGO-MIDWAY FAIR      80  70  71 SW5       29.86R
MOLINE         FAIR      75  67  76 CALM      29.84R
ROCKFORD       FAIR      74  68  81 S3        29.87R
PEORIA         FAIR      77  71  82 CALM      29.86S
$$

NOTE: "FAIR" INDICATES FEW OR NO CLOUDS BELOW 12,000 FEET WITH NO
SIGNIFICANT WEATHER AND/OR OBSTRUCTIONS TO VISIBILITY. WIND
SPEEDS ARE IN MILES-PER-HOUR.




USA.gov is the U.S. government's official web portal to all federal, state and local government web resources and services.